Location: Unspecified
(0.0000°N, 0.0000°E)
Time: 12:00:05
(UTC+02:00)

NOAA 12 - Visible Passes

Search period start: 30 June 2015 00:00
Search period end: 10 July 2015 00:00
Orbit: 796 x 815 km, 98.6° (Epoch: 29 June)

Date Brightness Start Highest point End Pass type
(mag) Time Alt. Az. Time Alt. Az. Time Alt. Az.
30 Jun 5.1 21:41:09 10° S 21:46:11 44° WSW 21:51:12 10° NNW visible
01 Jul 4.1 21:16:01 10° SSE 21:21:20 87° WSW 21:26:40 10° NNW visible
02 Jul 4.4 20:51:25 10° SSE 20:56:28 47° ENE 21:01:35 10° N visible
02 Jul 6.9 22:34:54 10° WSW 22:36:14 11° W 22:37:04 10° W visible
03 Jul 5.3 20:27:28 10° SE 20:31:35 24° ENE 20:35:51 10° NNE visible
03 Jul 6.3 22:07:09 10° SSW 22:11:16 22° WSW 22:15:13 10° NW visible
04 Jul 5.2 21:41:20 10° S 21:46:22 43° WSW 21:51:22 10° NNW visible
05 Jul 4.1 21:16:11 10° SSE 21:21:31 87° WSW 21:26:51 10° NNW visible
06 Jul 4.4 20:51:35 10° SSE 20:56:39 47° ENE 21:01:46 10° N visible
06 Jul 6.9 22:35:08 10° WSW 22:36:24 10° W 22:37:11 10° W visible
07 Jul 5.3 20:27:38 10° SE 20:31:46 24° E 20:36:03 10° NNE visible
07 Jul 6.3 22:07:20 10° SSW 22:11:27 22° WSW 22:15:23 10° NW visible
08 Jul 5.2 21:41:31 10° S 21:46:33 43° WSW 21:51:33 10° NNW visible
09 Jul 4.1 21:16:21 10° S 21:21:41 86° WSW 21:27:01 10° NNW visible
